| time (UTC) | temp F | wind direction | speed MPH | gust MPH | rain 1hr in | rain 24hr in | rain mn in | humidity % | barometer mb |
| 20260506080152 | 37 | 307 | 4.0 | 14.0 | 0.00 | 0.00 | 0.00 | 84 | 1346.7 |
| 20260506073136 | 37 | 257 | 2.0 | 14.0 | 0.00 | 0.00 | 0.00 | 84 | 1347.2 |
| 20260506072632 | 38 | 292 | 5.0 | 12.0 | 0.00 | 0.00 | 0.00 | 82 | 1347.3 |
| 20260506072131 | 37 | 221 | 7.0 | 10.0 | 0.00 | 0.00 | 0.00 | 84 | 1347.3 |
| 20260506071628 | 37 | 293 | 5.0 | 12.0 | 0.00 | 0.00 | 0.00 | 82 | 1347.0 |
| 20260506071125 | 37 | 307 | 4.0 | 11.0 | 0.00 | 0.00 | 0.00 | 82 | 1347.0 |
| 20260506070622 | 38 | 341 | 3.0 | 11.0 | 0.00 | 0.00 | 0.00 | 83 | 1346.8 |
| 20260506070119 | 37 | 272 | 6.0 | 7.0 | 0.00 | 0.00 | 0.00 | 83 | 1346.9 |
| 20260506062056 | 37 | 312 | 4.0 | 7.0 | 0.00 | 0.00 | 0.00 | 87 | 1347.2 |
| 20260506061552 | 37 | 0 | 2.0 | 6.0 | 0.00 | 0.00 | 0.00 | 88 | 1347.3 |
| 20260506061050 | 37 | 270 | 4.0 | 7.0 | 0.00 | 0.00 | 0.00 | 87 | 1347.3 |
| 20260506060548 | 37 | 330 | 2.0 | 6.0 | 0.00 | 0.00 | 0.00 | 86 | 1346.8 |
| 20260506051017 | 38 | 272 | 6.0 | 13.0 | 0.02 | 0.03 | 0.03 | 87 | 1347.0 |
| 20260506050515 | 39 | 269 | 9.0 | 31.0 | 0.05 | 0.03 | 0.03 | 85 | 1347.3 |
| 20260506045005 | 39 | 284 | 3.0 | 8.0 | 0.00 | 0.02 | 0.02 | 83 | 1347.2 |
| 20260506044504 | 39 | 6 | 3.0 | 7.0 | 0.00 | 0.02 | 0.02 | 83 | 1347.0 |
| 20260506044000 | 39 | 350 | 3.0 | 6.0 | 0.00 | 0.02 | 0.02 | 84 | 1346.8 |
| 20260506043457 | 39 | 36 | 3.0 | 8.0 | 0.00 | 0.02 | 0.02 | 85 | 1346.8 |
| 20260506042955 | 39 | 4 | 4.0 | 8.0 | 0.00 | 0.02 | 0.02 | 84 | 1346.7 |
| 20260506042454 | 39 | 280 | 2.0 | 14.0 | 0.00 | 0.02 | 0.02 | 85 | 1346.8 |
| 20260506041952 | 39 | 347 | 11.0 | 17.0 | 0.00 | 0.02 | 0.02 | 85 | 1346.9 |
| 20260506041450 | 38 | 353 | 2.0 | 15.0 | 0.00 | 0.02 | 0.02 | 86 | 1346.7 |
| 20260506040947 | 38 | 355 | 3.0 | 14.0 | 0.00 | 0.02 | 0.02 | 87 | 1346.9 |
| 20260506040444 | 38 | 293 | 4.0 | 13.0 | 0.00 | 0.02 | 0.02 | 87 | 1346.5 |
| 20260506035940 | 38 | 345 | 5.0 | 16.0 | 0.00 | 0.02 | 0.02 | 87 | 1346.7 |
| 20260506035438 | 38 | 319 | 2.0 | 11.0 | 0.00 | 0.02 | 0.02 | 88 | 1346.8 |
| 20260506034934 | 38 | 314 | 11.0 | 14.0 | 0.00 | 0.02 | 0.02 | 88 | 1346.8 |
| 20260506034431 | 38 | 345 | 3.0 | 10.0 | 0.00 | 0.02 | 0.02 | 87 | 1346.7 |
| 20260506033928 | 38 | 279 | 3.0 | 6.0 | 0.00 | 0.02 | 0.02 | 88 | 1346.7 |
| 20260506033426 | 39 | 249 | 3.0 | 11.0 | 0.00 | 0.02 | 0.02 | 87 | 1346.4 |
| 20260506032922 | 39 | 310 | 5.0 | 11.0 | 0.00 | 0.02 | 0.02 | 87 | 1346.2 |
| 20260506032419 | 39 | 291 | 5.0 | 18.0 | 0.02 | 0.02 | 0.02 | 87 | 1346.3 |
| 20260506031916 | 39 | 324 | 6.0 | 13.0 | 0.12 | 0.02 | 0.02 | 86 | 1346.4 |
| 20260506031414 | 41 | 250 | 4.0 | 21.0 | 0.09 | 0.02 | 0.02 | 80 | 1346.4 |
| 20260506030911 | 44 | 270 | 4.0 | 17.0 | 0.00 | 0.00 | 0.00 | 69 | 1346.3 |
| 20260506030409 | 43 | 41 | 13.0 | 13.0 | 0.00 | 0.00 | 0.00 | 68 | 1345.7 |
| 20260506025905 | 43 | 261 | 3.0 | 5.0 | 0.00 | 0.00 | 0.00 | 66 | 1345.5 |
| 20260506025403 | 43 | 188 | 0.0 | 3.0 | 0.00 | 0.00 | 0.00 | 65 | 1344.9 |
| 20260506024859 | 43 | 110 | 2.0 | 4.0 | 0.00 | 0.00 | 0.00 | 65 | 1344.5 |
| 20260506024356 | 43 | 26 | 3.0 | 5.0 | 0.00 | 0.00 | 0.00 | 64 | 1344.5 |
| 20260506023852 | 44 | 16 | 4.0 | 5.0 | 0.00 | 0.00 | 0.00 | 64 | 1344.9 |
| 20260506023349 | 44 | 22 | 4.0 | 8.0 | 0.00 | 0.00 | 0.00 | 64 | 1344.7 |
| 20260506022846 | 44 | 0 | 2.0 | 8.0 | 0.00 | 0.00 | 0.00 | 64 | 1344.7 |
| 20260506022343 | 44 | 10 | 7.0 | 10.0 | 0.00 | 0.00 | 0.00 | 63 | 1344.5 |
| 20260506021841 | 45 | 321 | 13.0 | 19.0 | 0.00 | 0.00 | 0.00 | 62 | 1344.8 |
| 20260506021338 | 46 | 315 | 4.0 | 11.0 | 0.00 | 0.00 | 0.00 | 61 | 1344.7 |
| 20260506020834 | 46 | 5 | 9.0 | 9.0 | 0.00 | 0.00 | 0.00 | 59 | 1344.3 |
| 20260506020333 | 48 | 270 | 2.0 | 11.0 | 0.00 | 0.00 | 0.00 | 52 | 1345.0 |
| 20260506015830 | 49 | 226 | 6.0 | 17.0 | 0.00 | 0.00 | 0.00 | 50 | 1344.5 |
| 20260506015327 | 49 | 239 | 9.0 | 26.0 | 0.00 | 0.00 | 0.00 | 49 | 1344.8 |
| 20260506014824 | 49 | 157 | 7.0 | 23.0 | 0.00 | 0.00 | 0.00 | 49 | 1344.4 |
| 20260506014321 | 49 | 270 | 1.0 | 25.0 | 0.00 | 0.00 | 0.00 | 49 | 1344.4 |
| 20260506013817 | 50 | 210 | 14.0 | 26.0 | 0.00 | 0.00 | 0.00 | 48 | 1344.3 |
| 20260506013315 | 50 | 225 | 9.0 | 24.0 | 0.00 | 0.00 | 0.00 | 49 | 1344.0 |
| 20260506012811 | 50 | 209 | 3.0 | 16.0 | 0.00 | 0.00 | 0.00 | 48 | 1344.0 |
| 20260506012308 | 50 | 111 | 1.0 | 16.0 | 0.00 | 0.00 | 0.00 | 46 | 1343.8 |
| 20260506011805 | 50 | 276 | 7.0 | 21.0 | 0.00 | 0.00 | 0.00 | 46 | 1343.5 |
| 20260506011302 | 51 | 273 | 8.0 | 15.0 | 0.00 | 0.00 | 0.00 | 45 | 1343.7 |
| 20260506010800 | 51 | 232 | 10.0 | 24.0 | 0.00 | 0.00 | 0.00 | 45 | 1343.8 |
| 20260506010257 | 52 | 263 | 7.0 | 19.0 | 0.00 | 0.00 | 0.00 | 43 | 1343.4 |
| 20260506005754 | 53 | 199 | 3.0 | 30.0 | 0.00 | 0.00 | 0.00 | 40 | 1343.9 |
| 20260506005251 | 53 | 226 | 7.0 | 27.0 | 0.00 | 0.00 | 0.00 | 39 | 1343.8 |
| 20260506004747 | 53 | 229 | 7.0 | 25.0 | 0.00 | 0.00 | 0.00 | 40 | 1343.9 |
| 20260506004245 | 52 | 243 | 7.0 | 25.0 | 0.00 | 0.00 | 0.00 | 43 | 1343.5 |
| 20260506003740 | 53 | 259 | 10.0 | 20.0 | 0.00 | 0.00 | 0.00 | 45 | 1343.5 |
| 20260506003237 | 51 | 277 | 9.0 | 19.0 | 0.00 | 0.00 | 0.00 | 47 | 1343.7 |
| 20260506002733 | 53 | 240 | 5.0 | 26.0 | 0.00 | 0.00 | 0.00 | 44 | 1343.8 |
| 20260506002229 | 52 | 262 | 12.0 | 20.0 | 0.00 | 0.00 | 0.00 | 45 | 1343.7 |
| 20260506001725 | 54 | 263 | 8.0 | 25.0 | 0.00 | 0.00 | 0.00 | 42 | 1343.7 |
| 20260506001223 | 53 | 215 | 13.0 | 18.0 | 0.00 | 0.00 | 0.00 | 46 | 1343.7 |
| 20260506000720 | 54 | 300 | 13.0 | 28.0 | 0.00 | 0.00 | 0.00 | 45 | 1343.8 |
| 20260506000219 | 55 | 213 | 20.0 | 27.0 | 0.00 | 0.00 | 0.00 | 45 | 1343.8 |
| 20260505235714 | 54 | 0 | 3.0 | 21.0 | 0.00 | 0.00 | 0.00 | 46 | 1343.9 |
| 20260505235212 | 53 | 258 | 6.0 | 22.0 | 0.00 | 0.00 | 0.00 | 49 | 1344.0 |
| 20260505234709 | 53 | 255 | 12.0 | 24.0 | 0.00 | 0.00 | 0.00 | 47 | 1343.9 |
| 20260505234206 | 53 | 204 | 23.0 | 25.0 | 0.00 | 0.00 | 0.00 | 48 | 1343.9 |
| 20260505233702 | 52 | 200 | 24.0 | 27.0 | 0.00 | 0.00 | 0.00 | 48 | 1343.9 |
| 20260505233200 | 52 | 240 | 10.0 | 22.0 | 0.00 | 0.00 | 0.00 | 50 | 1344.2 |
| 20260505232658 | 52 | 178 | 6.0 | 24.0 | 0.00 | 0.00 | 0.00 | 49 | 1344.0 |
| 20260505232155 | 53 | 241 | 3.0 | 22.0 | 0.00 | 0.00 | 0.00 | 48 | 1344.0 |
| 20260505231651 | 53 | 229 | 12.0 | 26.0 | 0.00 | 0.00 | 0.00 | 48 | 1343.9 |
| 20260505231151 | 52 | 198 | 7.0 | 30.0 | 0.00 | 0.00 | 0.00 | 49 | 1344.3 |
| 20260505230648 | 52 | 273 | 8.0 | 26.0 | 0.00 | 0.00 | 0.00 | 50 | 1343.7 |
| 20260505230145 | 52 | 212 | 7.0 | 23.0 | 0.00 | 0.00 | 0.00 | 50 | 1343.8 |
| 20260505225640 | 51 | 232 | 3.0 | 24.0 | 0.00 | 0.00 | 0.00 | 50 | 1343.9 |
| 20260505225137 | 52 | 203 | 14.0 | 25.0 | 0.00 | 0.00 | 0.00 | 49 | 1344.2 |
| 20260505224634 | 52 | 205 | 10.0 | 25.0 | 0.00 | 0.00 | 0.00 | 48 | 1343.8 |
| 20260505224132 | 52 | 211 | 5.0 | 28.0 | 0.00 | 0.00 | 0.00 | 48 | 1343.8 |
| 20260505223629 | 52 | 217 | 13.0 | 34.0 | 0.00 | 0.00 | 0.00 | 48 | 1344.0 |
| 20260505223125 | 53 | 207 | 6.0 | 27.0 | 0.00 | 0.00 | 0.00 | 46 | 1343.8 |
| 20260505222621 | 53 | 239 | 8.0 | 23.0 | 0.00 | 0.00 | 0.00 | 47 | 1344.0 |
| 20260505222117 | 53 | 237 | 10.0 | 24.0 | 0.00 | 0.00 | 0.00 | 47 | 1344.0 |
| 20260505221614 | 53 | 216 | 13.0 | 16.0 | 0.00 | 0.00 | 0.00 | 47 | 1344.2 |
| 20260505221111 | 54 | 213 | 14.0 | 24.0 | 0.00 | 0.00 | 0.00 | 46 | 1344.2 |
| 20260505220608 | 54 | 272 | 6.0 | 24.0 | 0.00 | 0.00 | 0.00 | 46 | 1344.2 |
| 20260505220106 | 55 | 220 | 6.0 | 16.0 | 0.00 | 0.00 | 0.00 | 46 | 1343.7 |
| 20260505215604 | 55 | 197 | 13.0 | 27.0 | 0.00 | 0.00 | 0.00 | 45 | 1343.8 |
| 20260505215101 | 55 | 216 | 8.0 | 27.0 | 0.00 | 0.00 | 0.00 | 45 | 1344.2 |
| 20260505214559 | 57 | 204 | 12.0 | 30.0 | 0.00 | 0.00 | 0.00 | 43 | 1343.9 |
| 20260505214056 | 55 | 175 | 13.0 | 24.0 | 0.00 | 0.00 | 0.00 | 44 | 1343.9 |
| 20260505213554 | 58 | 237 | 15.0 | 22.0 | 0.00 | 0.00 | 0.00 | 42 | 1343.9 |
| 20260505213050 | 54 | 263 | 16.0 | 24.0 | 0.00 | 0.00 | 0.00 | 46 | 1344.4 |
| 20260505212546 | 55 | 239 | 14.0 | 26.0 | 0.00 | 0.00 | 0.00 | 45 | 1344.7 |
| 20260505212044 | 53 | 278 | 16.0 | 28.0 | 0.00 | 0.00 | 0.00 | 47 | 1344.3 |
| 20260505211541 | 55 | 276 | 7.0 | 27.0 | 0.00 | 0.00 | 0.00 | 45 | 1344.4 |
| 20260505211037 | 55 | 249 | 6.0 | 20.0 | 0.00 | 0.00 | 0.00 | 46 | 1344.7 |
| 20260505210534 | 56 | 246 | 5.0 | 26.0 | 0.00 | 0.00 | 0.00 | 43 | 1344.7 |
| 20260505210031 | 55 | 303 | 5.0 | 22.0 | 0.00 | 0.00 | 0.00 | 45 | 1344.8 |
| 20260505205529 | 54 | 238 | 15.0 | 27.0 | 0.00 | 0.00 | 0.00 | 46 | 1344.5 |
| 20260505205026 | 54 | 261 | 11.0 | 30.0 | 0.00 | 0.00 | 0.00 | 46 | 1344.4 |
| 20260505204524 | 55 | 231 | 6.0 | 20.0 | 0.00 | 0.00 | 0.00 | 45 | 1344.8 |
| 20260505204021 | 55 | 227 | 10.0 | 30.0 | 0.00 | 0.00 | 0.00 | 45 | 1344.5 |
| 20260505203517 | 55 | 272 | 5.0 | 20.0 | 0.00 | 0.00 | 0.00 | 44 | 1344.5 |
| 20260505203014 | 56 | 201 | 14.0 | 22.0 | 0.00 | 0.00 | 0.00 | 44 | 1344.7 |
| 20260505202510 | 54 | 220 | 19.0 | 27.0 | 0.00 | 0.00 | 0.00 | 47 | 1344.7 |
| 20260505202006 | 54 | 313 | 13.0 | 26.0 | 0.00 | 0.00 | 0.00 | 48 | 1344.8 |
| 20260505201504 | 56 | 195 | 4.0 | 28.0 | 0.00 | 0.00 | 0.00 | 48 | 1344.7 |
| 20260505201001 | 58 | 202 | 15.0 | 24.0 | 0.00 | 0.00 | 0.00 | 46 | 1344.5 |
| 20260505200459 | 55 | 206 | 13.0 | 22.0 | 0.00 | 0.00 | 0.00 | 51 | 1344.8 |
| 20260505195954 | 54 | 176 | 6.0 | 34.0 | 0.00 | 0.00 | 0.00 | 50 | 1344.8 |
| 20260505195452 | 55 | 252 | 5.0 | 28.0 | 0.00 | 0.00 | 0.00 | 48 | 1344.8 |
| 20260505194949 | 55 | 196 | 13.0 | 26.0 | 0.00 | 0.00 | 0.00 | 46 | 1344.9 |
| 20260505194446 | 55 | 246 | 15.0 | 22.0 | 0.00 | 0.00 | 0.00 | 45 | 1344.9 |
| 20260505193946 | 55 | 300 | 6.0 | 27.0 | 0.00 | 0.00 | 0.00 | 47 | 1344.8 |
| 20260505193444 | 56 | 217 | 9.0 | 23.0 | 0.00 | 0.00 | 0.00 | 44 | 1344.4 |
| 20260505192941 | 57 | 279 | 10.0 | 26.0 | 0.00 | 0.00 | 0.00 | 42 | 1344.8 |
| 20260505192440 | 57 | 337 | 6.0 | 23.0 | 0.00 | 0.00 | 0.00 | 41 | 1344.5 |
| 20260505191937 | 55 | 354 | 5.0 | 29.0 | 0.00 | 0.00 | 0.00 | 43 | 1344.4 |
| 20260505191436 | 57 | 207 | 8.0 | 26.0 | 0.00 | 0.00 | 0.00 | 41 | 1344.8 |
| 20260505190932 | 55 | 191 | 3.0 | 19.0 | 0.00 | 0.00 | 0.00 | 43 | 1344.8 |
| 20260505190427 | 55 | 259 | 2.0 | 11.0 | 0.00 | 0.00 | 0.00 | 42 | 1344.7 |
| 20260505185923 | 56 | 268 | 9.0 | 26.0 | 0.00 | 0.00 | 0.00 | 41 | 1344.9 |
| 20260505185420 | 56 | 216 | 20.0 | 21.0 | 0.00 | 0.00 | 0.00 | 42 | 1344.8 |
| 20260505184916 | 55 | 208 | 11.0 | 24.0 | 0.00 | 0.00 | 0.00 | 43 | 1344.8 |
| 20260505184413 | 54 | 220 | 10.0 | 28.0 | 0.00 | 0.00 | 0.00 | 44 | 1344.8 |
| 20260505183910 | 55 | 318 | 9.0 | 19.0 | 0.00 | 0.00 | 0.00 | 43 | 1344.9 |
| 20260505183407 | 56 | 266 | 8.0 | 22.0 | 0.00 | 0.00 | 0.00 | 40 | 1345.0 |
| 20260505182904 | 55 | 198 | 4.0 | 24.0 | 0.00 | 0.00 | 0.00 | 42 | 1345.0 |
| 20260505182400 | 55 | 233 | 8.0 | 19.0 | 0.00 | 0.00 | 0.00 | 40 | 1344.8 |
| 20260505181857 | 55 | 230 | 7.0 | 19.0 | 0.00 | 0.00 | 0.00 | 40 | 1344.8 |
| 20260505181354 | 53 | 275 | 7.0 | 17.0 | 0.00 | 0.00 | 0.00 | 41 | 1344.8 |
| 20260505180851 | 54 | 306 | 6.0 | 8.0 | 0.00 | 0.00 | 0.00 | 40 | 1345.3 |
| 20260505180347 | 55 | 274 | 7.0 | 21.0 | 0.00 | 0.00 | 0.00 | 39 | 1345.0 |
| 20260505175844 | 54 | 254 | 6.0 | 16.0 | 0.00 | 0.00 | 0.00 | 40 | 1345.5 |
| 20260505175341 | 53 | 221 | 11.0 | 28.0 | 0.00 | 0.00 | 0.00 | 41 | 1345.5 |
| 20260505174837 | 55 | 233 | 11.0 | 28.0 | 0.00 | 0.00 | 0.00 | 40 | 1345.4 |
| 20260505174335 | 56 | 273 | 13.0 | 15.0 | 0.00 | 0.00 | 0.00 | 38 | 1345.2 |
| 20260505173830 | 55 | 235 | 6.0 | 14.0 | 0.00 | 0.00 | 0.00 | 39 | 1345.3 |
| 20260505173327 | 55 | 269 | 20.0 | 20.0 | 0.00 | 0.00 | 0.00 | 39 | 1345.4 |
| 20260505172824 | 53 | 315 | 4.0 | 10.0 | 0.00 | 0.00 | 0.00 | 40 | 1345.5 |
| 20260505172322 | 53 | 337 | 6.0 | 11.0 | 0.00 | 0.00 | 0.00 | 41 | 1345.7 |
| 20260505171821 | 53 | 270 | 6.0 | 18.0 | 0.00 | 0.00 | 0.00 | 41 | 1345.4 |
| 20260505171319 | 53 | 225 | 11.0 | 13.0 | 0.00 | 0.00 | 0.00 | 41 | 1345.4 |
| 20260505170815 | 53 | 249 | 7.0 | 18.0 | 0.00 | 0.00 | 0.00 | 41 | 1345.4 |
| 20260505170312 | 52 | 293 | 18.0 | 18.0 | 0.00 | 0.00 | 0.00 | 42 | 1345.8 |
| 20260505165807 | 52 | 306 | 7.0 | 17.0 | 0.00 | 0.00 | 0.00 | 41 | 1346.0 |
| 20260505165306 | 51 | 265 | 7.0 | 22.0 | 0.00 | 0.00 | 0.00 | 43 | 1346.0 |
| 20260505164759 | 51 | 281 | 6.0 | 13.0 | 0.00 | 0.00 | 0.00 | 42 | 1345.9 |
| 20260505164256 | 51 | 267 | 8.0 | 21.0 | 0.00 | 0.00 | 0.00 | 43 | 1345.9 |
| 20260505163754 | 50 | 225 | 3.0 | 16.0 | 0.00 | 0.00 | 0.00 | 44 | 1345.8 |
| 20260505163253 | 50 | 233 | 4.0 | 18.0 | 0.00 | 0.00 | 0.00 | 45 | 1345.8 |
| 20260505162750 | 50 | 176 | 5.0 | 17.0 | 0.00 | 0.00 | 0.00 | 45 | 1346.0 |
| 20260505162247 | 50 | 272 | 9.0 | 20.0 | 0.00 | 0.00 | 0.00 | 45 | 1346.2 |
| 20260505161744 | 50 | 232 | 15.0 | 24.0 | 0.00 | 0.00 | 0.00 | 45 | 1346.0 |
| 20260505161241 | 50 | 243 | 9.0 | 21.0 | 0.00 | 0.00 | 0.00 | 45 | 1346.2 |
| 20260505160738 | 51 | 265 | 7.0 | 30.0 | 0.00 | 0.00 | 0.00 | 43 | 1345.9 |
| 20260505160236 | 51 | 348 | 9.0 | 22.0 | 0.00 | 0.00 | 0.00 | 43 | 1346.0 |
| 20260505153215 | 49 | 250 | 9.0 | 22.0 | 0.00 | 0.00 | 0.00 | 47 | 1346.2 |
| 20260505152712 | 49 | 209 | 5.0 | 15.0 | 0.00 | 0.00 | 0.00 | 47 | 1346.2 |
| 20260505152208 | 48 | 285 | 8.0 | 22.0 | 0.00 | 0.00 | 0.00 | 48 | 1346.3 |
| 20260505151703 | 49 | 273 | 8.0 | 17.0 | 0.00 | 0.00 | 0.00 | 48 | 1346.2 |
| 20260505151201 | 49 | 266 | 6.0 | 21.0 | 0.00 | 0.00 | 0.00 | 48 | 1346.4 |
| 20260505150657 | 50 | 213 | 5.0 | 19.0 | 0.00 | 0.00 | 0.00 | 47 | 1346.3 |
| 20260505150154 | 50 | 328 | 9.0 | 19.0 | 0.00 | 0.00 | 0.00 | 46 | 1346.2 |
| 20260505140622 | 48 | 218 | 5.0 | 23.0 | 0.00 | 0.00 | 0.00 | 47 | 1346.5 |
| 20260505140119 | 49 | 277 | 5.0 | 23.0 | 0.00 | 0.00 | 0.00 | 46 | 1346.7 |
| 20260505125036 | 44 | 257 | 2.0 | 9.0 | 0.00 | 0.00 | 0.00 | 43 | 1346.3 |
| 20260505124533 | 44 | 246 | 4.0 | 8.0 | 0.00 | 0.00 | 0.00 | 43 | 1346.2 |
| 20260505124029 | 44 | 261 | 3.0 | 8.0 | 0.00 | 0.00 | 0.00 | 43 | 1346.0 |
| 20260505123525 | 44 | 231 | 6.0 | 7.0 | 0.00 | 0.00 | 0.00 | 43 | 1346.2 |
| 20260505123021 | 44 | 328 | 6.0 | 7.0 | 0.00 | 0.00 | 0.00 | 43 | 1346.3 |
| 20260505122519 | 44 | 328 | 4.0 | 9.0 | 0.00 | 0.00 | 0.00 | 43 | 1346.0 |
| 20260505122016 | 44 | 329 | 0.0 | 6.0 | 0.00 | 0.00 | 0.00 | 42 | 1346.0 |
| 20260505121512 | 44 | 14 | 2.0 | 2.0 | 0.00 | 0.00 | 0.00 | 42 | 1345.9 |
| 20260505121009 | 44 | 292 | 2.0 | 4.0 | 0.00 | 0.00 | 0.00 | 42 | 1346.0 |
| 20260505120506 | 44 | 139 | 2.0 | 4.0 | 0.00 | 0.00 | 0.00 | 42 | 1345.8 |
| 20260505120006 | 45 | 254 | 0.0 | 9.0 | 0.00 | 0.00 | 0.00 | 41 | 1345.7 |
| 20260505115501 | 46 | 349 | 1.0 | 5.0 | 0.00 | 0.00 | 0.00 | 41 | 1345.3 |
| 20260505114959 | 46 | 56 | 5.0 | 12.0 | 0.00 | 0.00 | 0.00 | 40 | 1345.5 |
| 20260505114455 | 46 | 284 | 5.0 | 8.0 | 0.00 | 0.00 | 0.00 | 40 | 1345.8 |
| 20260505113952 | 46 | 248 | 12.0 | 13.0 | 0.00 | 0.00 | 0.00 | 40 | 1345.7 |
| 20260505113449 | 46 | 331 | 4.0 | 13.0 | 0.00 | 0.00 | 0.00 | 41 | 1345.9 |
| 20260505112944 | 46 | 43 | 4.0 | 5.0 | 0.00 | 0.00 | 0.00 | 42 | 1345.7 |
| 20260505112441 | 46 | 187 | 0.0 | 10.0 | 0.00 | 0.00 | 0.00 | 41 | 1345.4 |
| 20260505111938 | 46 | 189 | 2.0 | 13.0 | 0.00 | 0.00 | 0.00 | 42 | 1345.3 |
| 20260505111432 | 46 | 295 | 0.0 | 14.0 | 0.00 | 0.00 | 0.00 | 41 | 1345.3 |
| 20260505110929 | 46 | 255 | 7.0 | 13.0 | 0.00 | 0.00 | 0.00 | 41 | 1345.5 |
| 20260505110426 | 46 | 259 | 8.0 | 11.0 | 0.00 | 0.00 | 0.00 | 42 | 1345.3 |
| 20260505101856 | 47 | 218 | 3.0 | 11.0 | 0.00 | 0.00 | 0.00 | 43 | 1345.5 |
| 20260505101351 | 47 | 256 | 3.0 | 11.0 | 0.00 | 0.00 | 0.00 | 42 | 1345.3 |
| 20260505100847 | 47 | 201 | 4.0 | 17.0 | 0.00 | 0.00 | 0.00 | 42 | 1345.5 |
| 20260505100344 | 47 | 233 | 6.0 | 17.0 | 0.00 | 0.00 | 0.00 | 42 | 1345.3 |
| 20260505095840 | 47 | 221 | 6.0 | 12.0 | 0.00 | 0.00 | 0.00 | 42 | 1345.5 |
| 20260505095338 | 48 | 272 | 5.0 | 16.0 | 0.00 | 0.00 | 0.00 | 41 | 1345.4 |
| 20260505094833 | 48 | 311 | 5.0 | 10.0 | 0.00 | 0.00 | 0.00 | 41 | 1345.5 |
| 20260505094331 | 48 | 266 | 3.0 | 15.0 | 0.00 | 0.00 | 0.00 | 40 | 1345.2 |
| 20260505093826 | 48 | 221 | 21.0 | 21.0 | 0.00 | 0.00 | 0.00 | 40 | 1345.5 |
| 20260505093324 | 48 | 223 | 11.0 | 14.0 | 0.00 | 0.00 | 0.00 | 39 | 1345.5 |
| 20260505092820 | 48 | 203 | 7.0 | 14.0 | 0.00 | 0.00 | 0.00 | 39 | 1345.8 |
| 20260505092319 | 49 | 208 | 4.0 | 14.0 | 0.00 | 0.00 | 0.00 | 38 | 1345.5 |
| 20260505091816 | 49 | 285 | 8.0 | 15.0 | 0.00 | 0.00 | 0.00 | 38 | 1345.0 |
| 20260505091314 | 49 | 221 | 2.0 | 15.0 | 0.00 | 0.00 | 0.00 | 37 | 1345.5 |
| 20260505090812 | 49 | 237 | 3.0 | 9.0 | 0.00 | 0.00 | 0.00 | 37 | 1345.8 |
| 20260505090310 | 50 | 265 | 5.0 | 9.0 | 0.00 | 0.00 | 0.00 | 36 | 1345.8 |
| 20260505085806 | 50 | 260 | 7.0 | 8.0 | 0.00 | 0.00 | 0.00 | 35 | 1345.9 |
| 20260505085305 | 50 | 286 | 3.0 | 8.0 | 0.00 | 0.00 | 0.00 | 35 | 1346.0 |
| 20260505084802 | 50 | 228 | 5.0 | 10.0 | 0.00 | 0.00 | 0.00 | 35 | 1345.8 |
| 20260505084301 | 50 | 282 | 4.0 | 7.0 | 0.00 | 0.00 | 0.00 | 35 | 1345.9 |
| 20260505083757 | 50 | 347 | 3.0 | 16.0 | 0.00 | 0.00 | 0.00 | 34 | 1345.8 |
| 20260505083254 | 50 | 255 | 1.0 | 13.0 | 0.00 | 0.00 | 0.00 | 34 | 1345.9 |
| 20260505082750 | 51 | 304 | 17.0 | 19.0 | 0.00 | 0.00 | 0.00 | 34 | 1346.2 |
| 20260505082247 | 51 | 293 | 11.0 | 19.0 | 0.00 | 0.00 | 0.00 | 34 | 1346.2 |
| 20260505081743 | 51 | 288 | 14.0 | 18.0 | 0.00 | 0.00 | 0.00 | 34 | 1346.5 |
| 20260505081241 | 51 | 279 | 3.0 | 18.0 | 0.00 | 0.00 | 0.00 | 34 | 1346.3 |
| 20260505080737 | 51 | 283 | 6.0 | 18.0 | 0.00 | 0.00 | 0.00 | 33 | 1346.4 |